| time (UTC) | temp F | wind direction | speed knots | gust knots | rain 1hr in | rain 24hr in | rain mn in | humidity % | barometer mb |
| 20260506211514 | 66 | 1 | 4.3 | 12.2 | 0.00 | 0.04 | 0.04 | 77 | 1008.1 |
| 20260506210016 | 66 | 1 | 3.5 | 11.3 | 0.00 | 0.04 | 0.04 | 78 | 1008.1 |
| 20260506204512 | 66 | 1 | 6.1 | 18.2 | 0.00 | 0.04 | 0.04 | 79 | 1008.0 |
| 20260506203012 | 65 | 1 | 7.0 | 13.9 | 0.00 | 0.04 | 0.04 | 80 | 1007.9 |
| 20260506201512 | 65 | 1 | 4.3 | 10.4 | 0.00 | 0.04 | 0.04 | 80 | 1008.0 |
| 20260506200024 | 64 | 1 | 6.1 | 16.5 | 0.00 | 0.04 | 0.04 | 81 | 1008.2 |
| 20260506194512 | 64 | 1 | 3.5 | 12.2 | 0.00 | 0.04 | 0.04 | 82 | 1008.2 |
| 20260506193014 | 63 | 1 | 7.8 | 13.9 | 0.00 | 0.04 | 0.04 | 82 | 1008.5 |
| 20260506191512 | 63 | 1 | 6.1 | 14.8 | 0.00 | 0.04 | 0.04 | 83 | 1008.6 |
| 20260506190014 | 63 | 1 | 4.3 | 13.9 | 0.00 | 0.04 | 0.04 | 83 | 1008.7 |
| 20260506184512 | 62 | 1 | 3.5 | 18.2 | 0.00 | 0.04 | 0.04 | 83 | 1008.7 |
| 20260506183011 | 62 | 1 | 6.1 | 13.0 | 0.00 | 0.04 | 0.04 | 83 | 1008.8 |
| 20260506181512 | 62 | 1 | 5.2 | 14.8 | 0.00 | 0.04 | 0.04 | 83 | 1008.9 |
| 20260506180016 | 62 | 1 | 6.1 | 14.8 | 0.00 | 0.04 | 0.04 | 83 | 1008.8 |
| 20260506174512 | 62 | 1 | 1.7 | 8.7 | 0.00 | 0.04 | 0.04 | 84 | 1009.0 |
| 20260506173011 | 62 | 1 | 5.2 | 17.4 | 0.00 | 0.04 | 0.04 | 84 | 1009.0 |
| 20260506171513 | 62 | 1 | 4.3 | 8.7 | 0.01 | 0.04 | 0.04 | 85 | 1009.1 |
| 20260506170016 | 62 | 1 | 4.3 | 11.3 | 0.02 | 0.04 | 0.04 | 87 | 1009.0 |
| 20260506164512 | 62 | 1 | 2.6 | 7.0 | 0.03 | 0.04 | 0.04 | 87 | 1009.2 |
| 20260506163022 | 61 | 1 | 1.7 | 4.3 | 0.04 | 0.04 | 0.04 | 87 | 1009.4 |
| 20260506161512 | 61 | 1 | 0.9 | 6.1 | 0.03 | 0.03 | 0.03 | 86 | 1010.2 |
| 20260506160016 | 62 | 1 | 2.6 | 12.2 | 0.02 | 0.02 | 0.02 | 84 | 1010.5 |
| 20260506154516 | 62 | 1 | 1.7 | 8.7 | 0.01 | 0.01 | 0.01 | 82 | 1010.6 |
| 20260506153012 | 63 | 1 | 1.7 | 13.0 | 0.00 | 0.00 | 0.00 | 80 | 1010.4 |
| 20260506151514 | 64 | 1 | 5.2 | 11.3 | 0.00 | 0.00 | 0.00 | 75 | 1010.5 |
| 20260506150014 | 65 | 1 | 2.6 | 14.8 | 0.00 | 0.00 | 0.00 | 72 | 1010.1 |
| 20260506144512 | 65 | 1 | 4.3 | 19.1 | 0.00 | 0.00 | 0.00 | 70 | 1010.6 |
| 20260506143016 | 66 | 1 | 4.3 | 20.0 | 0.00 | 0.00 | 0.00 | 67 | 1010.5 |
| 20260506141513 | 67 | 1 | 10.4 | 18.2 | 0.00 | 0.00 | 0.00 | 67 | 1010.4 |
| 20260506140013 | 67 | 1 | 7.8 | 16.5 | 0.00 | 0.00 | 0.00 | 67 | 1010.3 |
| 20260506134513 | 66 | 1 | 4.3 | 14.8 | 0.00 | 0.00 | 0.00 | 69 | 1010.4 |
| 20260506133011 | 66 | 1 | 3.5 | 13.9 | 0.00 | 0.00 | 0.00 | 70 | 1010.4 |
| 20260506131519 | 66 | 1 | 8.7 | 15.6 | 0.00 | 0.00 | 0.00 | 69 | 1010.5 |
| 20260506130013 | 66 | 1 | 4.3 | 15.6 | 0.00 | 0.00 | 0.00 | 70 | 1010.9 |
| 20260506124510 | 65 | 1 | 4.3 | 12.2 | 0.00 | 0.00 | 0.00 | 71 | 1010.6 |
| 20260506123011 | 65 | 1 | 3.5 | 9.6 | 0.00 | 0.00 | 0.00 | 71 | 1010.4 |
| 20260506121510 | 64 | 1 | 2.6 | 9.6 | 0.00 | 0.00 | 0.00 | 72 | 1010.4 |
| 20260506120013 | 64 | 1 | 2.6 | 9.6 | 0.00 | 0.00 | 0.00 | 74 | 1010.6 |
| 20260506114510 | 64 | 1 | 3.5 | 10.4 | 0.00 | 0.00 | 0.00 | 73 | 1010.5 |
| 20260506113015 | 63 | 1 | 2.6 | 8.7 | 0.00 | 0.00 | 0.00 | 74 | 1010.4 |
| 20260506111511 | 64 | 1 | 3.5 | 13.0 | 0.00 | 0.00 | 0.00 | 74 | 1010.5 |
| 20260506110013 | 63 | 1 | 2.6 | 7.0 | 0.00 | 0.00 | 0.00 | 75 | 1010.4 |
| 20260506104511 | 63 | 1 | 1.7 | 7.8 | 0.00 | 0.00 | 0.00 | 75 | 1010.4 |
| 20260506103022 | 63 | 1 | 3.5 | 13.0 | 0.00 | 0.00 | 0.00 | 76 | 1010.3 |
| 20260506101510 | 63 | 1 | 1.7 | 6.1 | 0.00 | 0.00 | 0.00 | 76 | 1010.3 |
| 20260506100013 | 63 | 1 | 3.5 | 7.8 | 0.00 | 0.00 | 0.00 | 76 | 1010.3 |
| 20260506094510 | 63 | 1 | 2.6 | 12.2 | 0.00 | 0.00 | 0.00 | 76 | 1010.1 |
| 20260506093013 | 63 | 1 | 3.5 | 8.7 | 0.00 | 0.00 | 0.00 | 75 | 1010.2 |
| 20260506091514 | 64 | 1 | 2.6 | 6.1 | 0.00 | 0.00 | 0.00 | 75 | 1010.2 |
| 20260506090013 | 64 | 1 | 2.6 | 7.0 | 0.00 | 0.00 | 0.00 | 75 | 1010.2 |
| 20260506084515 | 64 | 1 | 3.5 | 14.8 | 0.00 | 0.00 | 0.00 | 75 | 1010.3 |
| 20260506083010 | 64 | 1 | 1.7 | 5.2 | 0.00 | 0.00 | 0.00 | 75 | 1010.3 |
| 20260506081511 | 64 | 1 | 2.6 | 7.8 | 0.00 | 0.00 | 0.00 | 75 | 1010.5 |
| 20260506073011 | 65 | 1 | 1.7 | 5.2 | 0.00 | 0.00 | 0.00 | 73 | 1010.6 |
| 20260506071510 | 65 | 1 | 2.6 | 8.7 | 0.00 | 0.00 | 0.00 | 73 | 1010.7 |
| 20260506061511 | 66 | 1 | 3.5 | 7.0 | 0.00 | 0.00 | 0.00 | 71 | 1010.8 |
| 20260506044511 | 67 | 1 | 5.2 | 8.7 | 0.00 | 0.00 | 0.00 | 66 | 1011.4 |
| 20260506043013 | 67 | 1 | 3.5 | 7.0 | 0.00 | 0.00 | 0.00 | 65 | 1011.4 |
| 20260506041514 | 67 | 1 | 2.6 | 7.8 | 0.00 | 0.00 | 0.00 | 64 | 1011.5 |
| 20260506040019 | 68 | 1 | 2.6 | 6.1 | 0.00 | 0.00 | 0.00 | 63 | 1011.4 |
| 20260506034518 | 68 | 1 | 2.6 | 9.6 | 0.00 | 0.00 | 0.00 | 61 | 1011.3 |
| 20260506033013 | 69 | 1 | 2.6 | 7.8 | 0.00 | 0.00 | 0.00 | 60 | 1011.3 |
| 20260506031513 | 69 | 1 | 2.6 | 9.6 | 0.00 | 0.00 | 0.00 | 59 | 1011.3 |
| 20260506030015 | 69 | 1 | 2.6 | 13.9 | 0.00 | 0.00 | 0.00 | 59 | 1011.5 |
| 20260506024513 | 69 | 1 | 2.6 | 7.0 | 0.00 | 0.00 | 0.00 | 58 | 1011.5 |
| 20260506023013 | 69 | 1 | 1.7 | 5.2 | 0.00 | 0.00 | 0.00 | 58 | 1011.5 |
| 20260506021513 | 69 | 1 | 1.7 | 5.2 | 0.00 | 0.00 | 0.00 | 58 | 1011.5 |
| 20260506020029 | 69 | 1 | 2.6 | 6.1 | 0.00 | 0.00 | 0.00 | 57 | 1011.5 |
| 20260506014522 | 70 | 1 | 3.5 | 12.2 | 0.00 | 0.00 | 0.00 | 56 | 1011.5 |
| 20260506013013 | 71 | 1 | 1.7 | 8.7 | 0.00 | 0.00 | 0.00 | 54 | 1011.2 |
| 20260506011514 | 72 | 1 | 2.6 | 7.0 | 0.00 | 0.00 | 0.00 | 49 | 1011.1 |
| 20260506010019 | 73 | 1 | 1.7 | 7.8 | 0.00 | 0.00 | 0.00 | 47 | 1010.9 |
| 20260506004523 | 74 | 1 | 1.7 | 6.1 | 0.00 | 0.00 | 0.00 | 45 | 1010.8 |
| 20260506003013 | 75 | 1 | 1.7 | 5.2 | 0.00 | 0.00 | 0.00 | 41 | 1010.6 |
| 20260506001513 | 76 | 1 | 7.0 | 13.9 | 0.00 | 0.00 | 0.00 | 40 | 1010.4 |
| 20260506000023 | 76 | 1 | 3.5 | 6.1 | 0.00 | 0.00 | 0.00 | 40 | 1010.2 |
| 20260505234514 | 76 | 1 | 3.5 | 15.6 | 0.00 | 0.00 | 0.00 | 40 | 1010.2 |
| 20260505233013 | 77 | 1 | 3.5 | 8.7 | 0.00 | 0.00 | 0.00 | 40 | 1010.1 |
| 20260505231514 | 77 | 1 | 4.3 | 12.2 | 0.00 | 0.00 | 0.00 | 39 | 1010.0 |
| 20260505230029 | 78 | 1 | 4.3 | 14.8 | 0.00 | 0.00 | 0.00 | 39 | 1009.9 |
| 20260505224518 | 79 | 208 | 7.8 | 15.6 | 0.00 | 0.00 | 0.00 | 37 | 1009.9 |
| 20260505223013 | 80 | 210 | 5.2 | 18.2 | 0.00 | 0.00 | 0.00 | 35 | 1009.8 |
| 20260505221513 | 80 | 190 | 8.7 | 17.4 | 0.00 | 0.00 | 0.00 | 33 | 1009.7 |
| 20260505220015 | 80 | 200 | 7.8 | 13.9 | 0.00 | 0.00 | 0.00 | 32 | 1009.7 |
| 20260505214516 | 80 | 171 | 6.1 | 20.9 | 0.00 | 0.00 | 0.00 | 32 | 1009.5 |
| 20260505213016 | 80 | 177 | 5.2 | 15.6 | 0.00 | 0.00 | 0.00 | 32 | 1009.6 |